Tracking 18942 objects as of 17-Jan-2018
HD Live streaming from Space Station
objects crossing your sky now

SKYNET 4A

Track SKYNET 4A now!
SKYNET 4A is classified as:


NORAD ID: 20401
Int'l Code: 1990-001A
Perigee: 36,079.0 km
Apogee: 36,231.9 km
Inclination: 13.4 °
Period: 1,454.6 minutes
Semi major axis: 42526 km
RCS: 9.1377 m2 (large)
Launch date: January 1, 1990
Source: United Kingdom (UK)
Launch site: AIR FORCE EASTERN TEST RANGE (AFETR)
aabbcc
Your satellite tracking list
Your tracking list is empty




NASA's NSSDC Master Catalog

Two Line Element Set (TLE):
1 20401U 90001A   18016.93534708 -.00000062 +00000-0 +00000-0 0  9991
2 20401 013.3582 010.7742 0017981 252.6360 284.6666 00.98995200016346
Source of the keplerian elements: AFSPC